When you browse on this site, cookies collect data to enhance your experience and personalize the content and advertising you see.
Visit our Privacy Policy to learn more. By continuing to use the site, you agree to this use of cookies and data.
  • în România
  • Lista ţărilor
  • Pe 7 zile
  • Temperatura apei
  • Meteo pe hartă
  • Widget-uri
  • user-avatar
    Intrare

    Meteo pe oră la Cajamarca

    Astăzi, 5 Iunie, Vineri

    Timp Temperatura Precipitaţii Vânt Presiune Umiditate
    00:00 +10°C° 0 mm 2 m/s 543 mmHg 90%
    01:00 +10°C° 0 mm 2 m/s 543 mmHg 90%
    02:00 +10°C° 0 mm 2 m/s 543 mmHg 90%
    03:00 +10°C° 0 mm 2 m/s 543 mmHg 90%
    04:00 +9°C° 0 mm 2 m/s 543 mmHg 89%
    05:00 +10°C° 0 mm 2 m/s 543 mmHg 89%
    06:00 +10°C° 0 mm 2 m/s 543 mmHg 88%
    07:00 +10°C° 0 mm 3 m/s 543 mmHg 88%
    08:00 +12°C° 0 mm 3 m/s 545 mmHg 80%
    09:00 +15°C° 0 mm 2 m/s 547 mmHg 72%
    10:00 +17°C° 0 mm 2 m/s 548 mmHg 65%
    11:00 +18°C° 0.1 mm 3 m/s 548 mmHg 64%
    12:00 +18°C° 0.1 mm 3 m/s 548 mmHg 63%
    13:00 +18°C° 0.1 mm 3 m/s 547 mmHg 63%
    14:00 +18°C° 0.3 mm 3 m/s 547 mmHg 66%
    15:00 +17°C° 0.3 mm 2 m/s 546 mmHg 69%
    16:00 +16°C° 0.3 mm 2 m/s 545 mmHg 73%
    17:00 +15°C° 0.1 mm 2 m/s 545 mmHg 79%
    18:00 +13°C° 0.1 mm 2 m/s 544 mmHg 84%
    19:00 +10°C° 0.1 mm 2 m/s 543 mmHg 90%
    20:00 +10°C° 0 mm 2 m/s 544 mmHg 90%
    21:00 +10°C° 0 mm 2 m/s 544 mmHg 89%
    22:00 +10°C° 0 mm 2 m/s 544 mmHg 88%
    23:00 +10°C° 0 mm 2 m/s 544 mmHg 88%

    Mâine, 6 Iunie, Sâmbătă

    Timp Temperatura Precipitaţii Vânt Presiune Umiditate
    00:00 +10°C° 0 mm 2 m/s 544 mmHg 89%
    01:00 +9°C° 0 mm 2 m/s 544 mmHg 89%
    02:00 +10°C° 0 mm 2 m/s 543 mmHg 89%
    03:00 +10°C° 0 mm 2 m/s 543 mmHg 90%
    04:00 +10°C° 0 mm 2 m/s 543 mmHg 90%
    05:00 +10°C° 0 mm 2 m/s 544 mmHg 90%
    06:00 +10°C° 0 mm 2 m/s 544 mmHg 90%
    07:00 +10°C° 0 mm 2 m/s 544 mmHg 89%
    08:00 +13°C° 0 mm 2 m/s 546 mmHg 81%
    09:00 +15°C° 0 mm 2 m/s 547 mmHg 73%
    10:00 +17°C° 0 mm 2 m/s 548 mmHg 64%
    11:00 +18°C° 0.2 mm 2 m/s 548 mmHg 63%
    12:00 +18°C° 0.2 mm 2 m/s 548 mmHg 62%
    13:00 +19°C° 0.2 mm 3 m/s 548 mmHg 60%
    14:00 +18°C° 1 mm 2 m/s 547 mmHg 67%
    15:00 +17°C° 1 mm 2 m/s 546 mmHg 73%
    16:00 +16°C° 1 mm 2 m/s 545 mmHg 80%
    17:00 +15°C° 0.8 mm 1 m/s 545 mmHg 85%
    18:00 +13°C° 0.8 mm 1 m/s 545 mmHg 90%
    19:00 +12°C° 0.8 mm 1 m/s 544 mmHg 95%
    20:00 +12°C° 0.1 mm 1 m/s 545 mmHg 94%
    21:00 +12°C° 0.1 mm 1 m/s 545 mmHg 93%
    22:00 +12°C° 0.1 mm 1 m/s 545 mmHg 92%
    23:00 +11°C° 0.1 mm 1 m/s 545 mmHg 92%

    Poimâine, 7 Iunie, Duminică

    Timp Temperatura Precipitaţii Vânt Presiune Umiditate
    00:00 +11°C° 0.1 mm 1 m/s 545 mmHg 91%
    01:00 +11°C° 0.1 mm 1 m/s 544 mmHg 90%
    02:00 +11°C° 0 mm 1 m/s 544 mmHg 90%
    03:00 +10°C° 0 mm 1 m/s 544 mmHg 90%
    04:00 +9°C° 0 mm 2 m/s 543 mmHg 89%
    05:00 +9°C° 0 mm 2 m/s 544 mmHg 88%
    06:00 +9°C° 0 mm 2 m/s 544 mmHg 86%
    07:00 +10°C° 0 mm 2 m/s 544 mmHg 85%
    08:00 +13°C° 0 mm 2 m/s 545 mmHg 76%
    09:00 +15°C° 0 mm 2 m/s 547 mmHg 66%
    10:00 +17°C° 0 mm 2 m/s 548 mmHg 57%
    11:00 +18°C° 0 mm 2 m/s 548 mmHg 54%
    12:00 +19°C° 0 mm 2 m/s 548 mmHg 51%
    13:00 +20°C° 0 mm 2 m/s 548 mmHg 48%
    14:00 +19°C° 0.1 mm 2 m/s 547 mmHg 52%
    15:00 +19°C° 0.1 mm 2 m/s 546 mmHg 57%
    16:00 +18°C° 0.1 mm 2 m/s 546 mmHg 61%
    17:00 +16°C° 0.2 mm 2 m/s 545 mmHg 71%
    18:00 +14°C° 0.2 mm 1 m/s 544 mmHg 81%
    19:00 +12°C° 0.2 mm 1 m/s 544 mmHg 92%
    20:00 +12°C° 0 mm 1 m/s 544 mmHg 91%
    21:00 +12°C° 0 mm 1 m/s 545 mmHg 90%
    22:00 +12°C° 0 mm 1 m/s 545 mmHg 89%
    23:00 +12°C° 0 mm 2 m/s 545 mmHg 89%

    8 Iunie, Luni

    Timp Temperatura Precipitaţii Vânt Presiune Umiditate
    00:00 +12°C° 0 mm 2 m/s 545 mmHg 90%
    01:00 +10°C° 0 mm 2 m/s 545 mmHg 90%
    02:00 +10°C° 0 mm 2 m/s 544 mmHg 89%
    03:00 +10°C° 0 mm 2 m/s 544 mmHg 88%
    04:00 +10°C° 0 mm 2 m/s 543 mmHg 88%
    05:00 +10°C° 0 mm 2 m/s 544 mmHg 87%
    06:00 +10°C° 0 mm 2 m/s 544 mmHg 86%
    07:00 +10°C° 0 mm 2 m/s 544 mmHg 86%
    08:00 +13°C° 0 mm 2 m/s 545 mmHg 77%
    09:00 +15°C° 0 mm 2 m/s 547 mmHg 68%
    10:00 +17°C° 0 mm 2 m/s 548 mmHg 59%
    11:00 +18°C° 0.1 mm 2 m/s 548 mmHg 57%
    12:00 +19°C° 0.1 mm 2 m/s 548 mmHg 56%
    13:00 +19°C° 0.1 mm 3 m/s 548 mmHg 55%
    14:00 +19°C° 0.4 mm 3 m/s 547 mmHg 60%
    15:00 +18°C° 0.4 mm 2 m/s 546 mmHg 65%
    16:00 +17°C° 0.4 mm 2 m/s 545 mmHg 70%
    17:00 +15°C° 0.4 mm 2 m/s 545 mmHg 78%
    18:00 +13°C° 0.4 mm 1 m/s 544 mmHg 86%
    19:00 +10°C° 0.4 mm 0 m/s 543 mmHg 93%
    20:00 +11°C° 0.1 mm 1 m/s 543 mmHg 93%
    21:00 +11°C° 0.1 mm 1 m/s 544 mmHg 92%
    22:00 +11°C° 0.1 mm 1 m/s 544 mmHg 92%
    23:00 +11°C° 0 mm 1 m/s 544 mmHg 91%

    9 Iunie, Marţi

    Timp Temperatura Precipitaţii Vânt Presiune Umiditate
    00:00 +10°C° 0 mm 1 m/s 543 mmHg 91%
    01:00 +10°C° 0 mm 1 m/s 543 mmHg 90%
    02:00 +10°C° 0 mm 1 m/s 543 mmHg 90%
    03:00 +10°C° 0 mm 1 m/s 543 mmHg 90%
    04:00 +10°C° 0 mm 1 m/s 542 mmHg 90%
    05:00 +10°C° 0 mm 1 m/s 543 mmHg 90%
    06:00 +10°C° 0 mm 1 m/s 543 mmHg 90%
    07:00 +11°C° 0 mm 1 m/s 544 mmHg 90%
    08:00 +13°C° 0 mm 1 m/s 545 mmHg 80%
    09:00 +15°C° 0 mm 1 m/s 547 mmHg 71%
    10:00 +17°C° 0 mm 2 m/s 548 mmHg 61%
    11:00 +18°C° 0.1 mm 2 m/s 548 mmHg 58%
    12:00 +19°C° 0.1 mm 2 m/s 548 mmHg 56%
    13:00 +20°C° 0.1 mm 3 m/s 548 mmHg 53%
    14:00 +19°C° 0.3 mm 3 m/s 547 mmHg 58%
    15:00 +18°C° 0.3 mm 2 m/s 546 mmHg 63%
    16:00 +17°C° 0.3 mm 2 m/s 545 mmHg 69%
    17:00 +15°C° 0.2 mm 2 m/s 544 mmHg 77%
    18:00 +13°C° 0.2 mm 1 m/s 543 mmHg 85%
    19:00 +11°C° 0.2 mm 1 m/s 543 mmHg 93%
    20:00 +11°C° 0 mm 1 m/s 543 mmHg 93%
    21:00 +11°C° 0 mm 1 m/s 543 mmHg 93%
    22:00 +10°C° 0 mm 1 m/s 543 mmHg 93%
    23:00 +10°C° 0 mm 1 m/s 543 mmHg 92%

    10 Iunie, Miercuri

    Timp Temperatura Precipitaţii Vânt Presiune Umiditate
    00:00 +10°C° 0 mm 1 m/s 543 mmHg 91%
    01:00 +10°C° 0 mm 1 m/s 543 mmHg 90%
    02:00 +10°C° 0 mm 1 m/s 542 mmHg 89%
    03:00 +10°C° 0 mm 1 m/s 542 mmHg 89%
    04:00 +9°C° 0 mm 1 m/s 542 mmHg 88%
    05:00 +10°C° 0 mm 1 m/s 542 mmHg 87%
    06:00 +10°C° 0 mm 1 m/s 542 mmHg 85%
    07:00 +10°C° 0 mm 1 m/s 543 mmHg 84%
    08:00 +12°C° 0 mm 2 m/s 544 mmHg 74%
    09:00 +15°C° 0 mm 2 m/s 546 mmHg 64%
    10:00 +17°C° 0 mm 2 m/s 547 mmHg 54%
    11:00 +18°C° 0 mm 2 m/s 547 mmHg 52%
    12:00 +19°C° 0 mm 2 m/s 547 mmHg 50%
    13:00 +20°C° 0 mm 2 m/s 547 mmHg 47%
    14:00 +19°C° 0.1 mm 2 m/s 546 mmHg 53%
    15:00 +18°C° 0.1 mm 2 m/s 545 mmHg 59%
    16:00 +17°C° 0.1 mm 3 m/s 544 mmHg 64%
    17:00 +15°C° 0 mm 2 m/s 544 mmHg 74%
    18:00 +13°C° 0 mm 1 m/s 543 mmHg 83%
    19:00 +12°C° 0 mm 1 m/s 543 mmHg 92%
    20:00 +11°C° 0 mm 1 m/s 543 mmHg 92%
    21:00 +11°C° 0 mm 1 m/s 543 mmHg 93%
    22:00 +11°C° 0 mm 1 m/s 543 mmHg 94%
    23:00 +11°C° 0 mm 1 m/s 543 mmHg 94%
    Arată mai mult